Location: �bnet
(46.9957°N, 8.4908°E)
Time: 03:18:27
(UTC+00:00)

Cosmos 990 Rocket - Pass Details

Date: 11 May 2021
Orbit: 747 x 769 km, 74.0° (Epoch: 23 June)

Event Time Altitude Azimuth Distance (km) Brightness Sun altitude
Exits shadow 21:20:06 38° 152° (SSE) 1,148 4.4 -19.3°
Maximum altitude 21:21:35 50° 105° (ESE) 971 4.2 -19.4°
Drops below altitude 10° 21:26:39 10° 31° (NNE) 2,317 6.8 -19.9°
Sets 21:29:05 0° 27° (NNE) 3,249 7.7 -20.1°
